Time,TemperatureF,DewpointF,PressureIn,WindDirection,WindDirectionDegrees,WindSpeedMPH,WindSpeedGustMPH,Humidity,HourlyPrecipIn,Conditions,Clouds,dailyrainin,SoftwareType,DateUTC
2013-02-27 00:00:00,30.6,4.9,30.28,NNW,331,4.0,4.0,33,0.00,,,0.00,Wunderground v.1.15,2013-02-27 07:00:00,
2013-02-27 00:10:00,30.3,5.2,30.28,NW,322,4.0,5.0,34,0.00,,,0.00,Wunderground v.1.15,2013-02-27 07:10:00,
2013-02-27 00:15:00,30.2,5.2,30.28,North,11,3.0,5.0,34,0.00,,,0.00,Wunderground v.1.15,2013-02-27 07:15:00,
2013-02-27 00:20:00,30.2,5.2,30.28,North,351,4.0,5.0,34,0.00,,,0.00,Wunderground v.1.15,2013-02-27 07:20:00,
2013-02-27 00:25:00,30.1,5.1,30.28,NNW,342,4.0,6.0,34,0.00,,,0.00,Wunderground v.1.15,2013-02-27 07:25:00,
2013-02-27 00:30:00,30.1,5.1,30.28,NNW,344,3.0,4.0,34,0.00,,,0.00,Wunderground v.1.15,2013-02-27 07:30:00,
2013-02-27 00:40:00,29.9,5.5,30.29,NW,325,3.0,3.0,35,0.00,,,0.00,Wunderground v.1.15,2013-02-27 07:40:00,
2013-02-27 00:45:00,29.7,5.3,30.29,NNW,327,2.0,3.0,35,0.00,,,0.00,Wunderground v.1.15,2013-02-27 07:45:00,
2013-02-27 00:50:00,29.6,5.3,30.29,NNE,26,2.0,2.0,35,0.00,,,0.00,Wunderground v.1.15,2013-02-27 07:50:00,
2013-02-27 00:55:00,29.4,5.1,30.29,NE,43,1.0,2.0,35,0.00,,,0.00,Wunderground v.1.15,2013-02-27 07:55:00,
2013-02-27 01:00:00,29.2,4.9,30.30,NE,36,1.0,1.0,35,0.00,,,0.00,Wunderground v.1.15,2013-02-27 08:00:00,
2013-02-27 01:05:00,29.0,5.3,30.30,NE,34,1.0,2.0,36,0.00,,,0.00,Wunderground v.1.15,2013-02-27 08:05:00,
2013-02-27 01:10:00,28.9,5.2,30.30,NNE,29,1.0,1.0,36,0.00,,,0.00,Wunderground v.1.15,2013-02-27 08:10:00,
2013-02-27 01:15:00,28.7,5.1,30.30,NNE,23,2.0,2.0,36,0.00,,,0.00,Wunderground v.1.15,2013-02-27 08:15:00,
2013-02-27 01:25:00,28.5,4.9,30.30,North,355,1.0,3.0,36,0.00,,,0.00,Wunderground v.1.15,2013-02-27 08:25:00,
2013-02-27 01:30:00,28.4,4.8,30.30,NW,323,2.0,4.0,36,0.00,,,0.00,Wunderground v.1.15,2013-02-27 08:30:00,
2013-02-27 01:35:00,28.5,5.5,30.30,NW,325,3.0,4.0,37,0.00,,,0.00,Wunderground v.1.15,2013-02-27 08:35:00,
2013-02-27 01:40:00,28.5,5.5,30.31,NW,321,2.0,3.0,37,0.00,,,0.00,Wunderground v.1.15,2013-02-27 08:40:00,
2013-02-27 01:45:00,28.7,5.7,30.31,North,360,2.0,3.0,37,0.00,,,0.00,Wunderground v.1.15,2013-02-27 08:45:00,
2013-02-27 01:50:00,28.8,5.8,30.31,NNW,327,3.0,4.0,37,0.00,,,0.00,Wunderground v.1.15,2013-02-27 08:50:00,
2013-02-27 01:55:00,28.9,5.8,30.31,NW,323,2.0,4.0,37,0.00,,,0.00,Wunderground v.1.15,2013-02-27 08:55:00,
2013-02-27 02:00:00,28.7,5.7,30.32,NW,323,1.0,1.0,37,0.00,,,0.00,Wunderground v.1.15,2013-02-27 09:00:00,
2013-02-27 02:10:00,27.8,5.4,30.31,NW,323,0.0,0.0,38,0.00,,,0.00,Wunderground v.1.15,2013-02-27 09:10:00,
2013-02-27 02:15:00,27.5,5.7,30.31,NW,323,0.0,0.0,39,0.00,,,0.00,Wunderground v.1.15,2013-02-27 09:15:00,
2013-02-27 02:20:00,27.2,5.5,30.31,NW,323,0.0,0.0,39,0.00,,,0.00,Wunderground v.1.15,2013-02-27 09:20:00,
2013-02-27 02:25:00,26.9,5.8,30.31,NW,323,0.0,0.0,40,0.00,,,0.00,Wunderground v.1.15,2013-02-27 09:25:00,
2013-02-27 02:30:00,27.2,6.0,30.31,NW,324,0.0,5.0,40,0.00,,,0.00,Wunderground v.1.15,2013-02-27 09:30:00,
2013-02-27 02:35:00,27.3,6.1,30.31,NW,324,1.0,5.0,40,0.00,,,0.00,Wunderground v.1.15,2013-02-27 09:35:00,
2013-02-27 02:40:00,27.3,6.1,30.32,NW,324,0.0,0.0,40,0.00,,,0.00,Wunderground v.1.15,2013-02-27 09:40:00,
2013-02-27 02:45:00,27.1,5.9,30.32,NW,324,0.0,0.0,40,0.00,,,0.00,Wunderground v.1.15,2013-02-27 09:45:00,
2013-02-27 02:50:00,26.8,6.2,30.32,NW,324,0.0,0.0,41,0.00,,,0.00,Wunderground v.1.15,2013-02-27 09:50:00,
2013-02-27 02:55:00,26.4,5.8,30.32,NW,324,0.0,0.0,41,0.00,,,0.00,Wunderground v.1.15,2013-02-27 09:55:00,
2013-02-27 03:00:00,26.1,6.1,30.32,NW,324,0.0,0.0,42,0.00,,,0.00,Wunderground v.1.15,2013-02-27 10:00:00,
2013-02-27 03:05:00,26.0,6.0,30.32,NW,324,0.0,0.0,42,0.00,,,0.00,Wunderground v.1.15,2013-02-27 10:05:00,
2013-02-27 03:10:00,26.0,6.0,30.32,NW,324,0.0,0.0,42,0.00,,,0.00,Wunderground v.1.15,2013-02-27 10:10:00,
2013-02-27 03:15:00,25.8,6.3,30.32,NW,324,0.0,0.0,43,0.00,,,0.00,Wunderground v.1.15,2013-02-27 10:15:00,
2013-02-27 03:20:00,25.7,6.3,30.33,NW,324,0.0,0.0,43,0.00,,,0.00,Wunderground v.1.15,2013-02-27 10:20:00,
2013-02-27 03:25:00,25.4,6.0,30.33,NW,324,0.0,0.0,43,0.00,,,0.00,Wunderground v.1.15,2013-02-27 10:25:00,
2013-02-27 03:30:00,25.0,6.1,30.33,NW,324,0.0,3.0,44,0.00,,,0.00,Wunderground v.1.15,2013-02-27 10:30:00,
2013-02-27 03:35:00,24.7,6.3,30.33,NW,324,0.0,3.0,45,0.00,,,0.00,Wunderground v.1.15,2013-02-27 10:35:00,
2013-02-27 03:40:00,24.5,6.2,30.33,NW,324,0.0,0.0,45,0.00,,,0.00,Wunderground v.1.15,2013-02-27 10:40:00,
2013-02-27 03:45:00,24.4,6.1,30.34,NW,324,0.0,0.0,45,0.00,,,0.00,Wunderground v.1.15,2013-02-27 10:45:00,
2013-02-27 03:50:00,24.1,5.8,30.34,NW,324,0.0,0.0,45,0.00,,,0.00,Wunderground v.1.15,2013-02-27 10:50:00,
2013-02-27 03:55:00,23.8,6.0,30.34,NW,324,0.0,0.0,46,0.00,,,0.00,Wunderground v.1.15,2013-02-27 10:55:00,
2013-02-27 04:00:00,23.5,6.2,30.34,NW,324,0.0,0.0,47,0.00,,,0.00,Wunderground v.1.15,2013-02-27 11:00:00,
2013-02-27 04:05:00,23.2,5.9,30.35,NW,324,0.0,0.0,47,0.00,,,0.00,Wunderground v.1.15,2013-02-27 11:05:00,
2013-02-27 04:10:00,23.0,6.2,30.35,NW,324,0.0,0.0,48,0.00,,,0.00,Wunderground v.1.15,2013-02-27 11:10:00,
2013-02-27 04:15:00,22.7,5.9,30.35,NW,324,0.0,0.0,48,0.00,,,0.00,Wunderground v.1.15,2013-02-27 11:15:00,
2013-02-27 04:20:00,22.6,6.3,30.35,NW,324,0.0,0.0,49,0.00,,,0.00,Wunderground v.1.15,2013-02-27 11:20:00,
2013-02-27 04:25:00,22.4,6.1,30.36,NW,324,0.0,0.0,49,0.00,,,0.00,Wunderground v.1.15,2013-02-27 11:25:00,
2013-02-27 04:30:00,22.3,6.4,30.36,NW,324,0.0,0.0,50,0.00,,,0.00,Wunderground v.1.15,2013-02-27 11:30:00,
2013-02-27 04:35:00,22.1,6.3,30.36,NW,324,0.0,0.0,50,0.00,,,0.00,Wunderground v.1.15,2013-02-27 11:35:00,
2013-02-27 04:40:00,22.0,6.2,30.37,NW,324,0.0,0.0,50,0.00,,,0.00,Wunderground v.1.15,2013-02-27 11:40:00,
2013-02-27 04:45:00,21.9,6.5,30.37,NW,324,0.0,0.0,51,0.00,,,0.00,Wunderground v.1.15,2013-02-27 11:45:00,
2013-02-27 04:50:00,21.9,6.5,30.37,NW,324,0.0,0.0,51,0.00,,,0.00,Wunderground v.1.15,2013-02-27 11:50:00,
2013-02-27 04:55:00,21.8,6.4,30.37,NW,324,0.0,0.0,51,0.00,,,0.00,Wunderground v.1.15,2013-02-27 11:55:00,
2013-02-27 05:00:00,21.8,6.4,30.37,NW,324,0.0,0.0,51,0.00,,,0.00,Wunderground v.1.15,2013-02-27 12:00:00,
2013-02-27 05:05:00,21.6,6.7,30.38,NW,324,0.0,0.0,52,0.00,,,0.00,Wunderground v.1.15,2013-02-27 12:05:00,
2013-02-27 05:10:00,21.5,6.6,30.38,NW,324,0.0,0.0,52,0.00,,,0.00,Wunderground v.1.15,2013-02-27 12:10:00,
2013-02-27 05:15:00,21.3,6.8,30.38,NW,324,0.0,0.0,53,0.00,,,0.00,Wunderground v.1.15,2013-02-27 12:15:00,
2013-02-27 05:20:00,21.2,6.3,30.38,NW,324,0.0,0.0,52,0.00,,,0.00,Wunderground v.1.15,2013-02-27 12:20:00,
2013-02-27 05:25:00,20.9,6.4,30.38,NW,324,0.0,0.0,53,0.00,,,0.00,Wunderground v.1.15,2013-02-27 12:25:00,
2013-02-27 05:30:00,20.7,6.2,30.38,NW,324,0.0,0.0,53,0.00,,,0.00,Wunderground v.1.15,2013-02-27 12:30:00,
2013-02-27 05:35:00,20.5,6.5,30.38,NW,324,0.0,0.0,54,0.00,,,0.00,Wunderground v.1.15,2013-02-27 12:35:00,
2013-02-27 05:40:00,20.1,6.5,30.38,NW,324,0.0,0.0,55,0.00,,,0.00,Wunderground v.1.15,2013-02-27 12:40:00,
2013-02-27 05:45:00,20.3,6.7,30.38,NW,324,0.0,0.0,55,0.00,,,0.00,Wunderground v.1.15,2013-02-27 12:45:00,
2013-02-27 05:50:00,20.3,6.7,30.38,NW,324,0.0,0.0,55,0.00,,,0.00,Wunderground v.1.15,2013-02-27 12:50:00,
2013-02-27 05:55:00,20.2,6.6,30.39,NW,324,0.0,0.0,55,0.00,,,0.00,Wunderground v.1.15,2013-02-27 12:55:00,
2013-02-27 06:00:00,19.9,6.7,30.39,NW,324,0.0,0.0,56,0.00,,,0.00,Wunderground v.1.15,2013-02-27 13:00:00,
2013-02-27 06:05:00,19.7,6.1,30.39,NW,324,0.0,0.0,55,0.00,,,0.00,Wunderground v.1.15,2013-02-27 13:05:00,
2013-02-27 06:15:00,19.6,6.8,30.39,NW,324,0.0,0.0,57,0.00,,,0.00,Wunderground v.1.15,2013-02-27 13:15:00,
2013-02-27 06:20:00,19.7,6.9,30.39,NW,324,0.0,0.0,57,0.00,,,0.00,Wunderground v.1.15,2013-02-27 13:20:00,
2013-02-27 06:25:00,19.7,6.5,30.40,NW,324,0.0,0.0,56,0.00,,,0.00,Wunderground v.1.15,2013-02-27 13:25:00,
2013-02-27 06:30:00,19.7,6.5,30.40,NW,324,0.0,0.0,56,0.00,,,0.00,Wunderground v.1.15,2013-02-27 13:30:00,
2013-02-27 06:35:00,19.7,6.9,30.40,NW,324,0.0,0.0,57,0.00,,,0.00,Wunderground v.1.15,2013-02-27 13:35:00,
2013-02-27 06:40:00,19.4,6.6,30.41,NW,324,0.0,0.0,57,0.00,,,0.00,Wunderground v.1.15,2013-02-27 13:40:00,
2013-02-27 06:45:00,19.2,6.8,30.41,NW,324,0.0,0.0,58,0.00,,,0.00,Wunderground v.1.15,2013-02-27 13:45:00,
2013-02-27 06:50:00,19.3,6.9,30.41,NW,324,0.0,0.0,58,0.00,,,0.00,Wunderground v.1.15,2013-02-27 13:50:00,
2013-02-27 06:55:00,19.3,6.9,30.41,NW,324,0.0,0.0,58,0.00,,,0.00,Wunderground v.1.15,2013-02-27 13:55:00,
2013-02-27 07:05:00,19.0,6.6,30.42,NW,324,0.0,0.0,58,0.00,,,0.00,Wunderground v.1.15,2013-02-27 14:05:00,
2013-02-27 07:10:00,18.9,6.5,30.42,NW,324,0.0,0.0,58,0.00,,,0.00,Wunderground v.1.15,2013-02-27 14:10:00,
2013-02-27 07:15:00,18.9,6.9,30.42,NW,324,0.0,0.0,59,0.00,,,0.00,Wunderground v.1.15,2013-02-27 14:15:00,
2013-02-27 07:20:00,19.3,7.3,30.43,NW,324,0.0,0.0,59,0.00,,,0.00,Wunderground v.1.15,2013-02-27 14:20:00,
2013-02-27 07:30:00,20.8,7.9,30.44,NW,324,0.0,0.0,57,0.00,,,0.00,Wunderground v.1.15,2013-02-27 14:30:00,
2013-02-27 07:35:00,22.0,7.9,30.44,NW,324,0.0,0.0,54,0.00,,,0.00,Wunderground v.1.15,2013-02-27 14:35:00,
2013-02-27 07:40:00,23.7,8.2,30.44,NW,324,0.0,0.0,51,0.00,,,0.00,Wunderground v.1.15,2013-02-27 14:40:00,
2013-02-27 07:45:00,25.3,7.9,30.44,NW,324,0.0,3.0,47,0.00,,,0.00,Wunderground v.1.15,2013-02-27 14:45:00,
2013-02-27 07:50:00,26.2,7.7,30.45,NW,325,1.0,1.0,45,0.00,,,0.00,Wunderground v.1.15,2013-02-27 14:50:00,
2013-02-27 07:55:00,27.1,8.0,30.45,NW,325,1.0,1.0,44,0.00,,,0.00,Wunderground v.1.15,2013-02-27 14:55:00,
2013-02-27 08:00:00,28.2,7.5,30.45,NW,325,0.0,0.0,41,0.00,,,0.00,Wunderground v.1.15,2013-02-27 15:00:00,
2013-02-27 08:05:00,28.5,7.2,30.46,NNW,333,1.0,3.0,40,0.00,,,0.00,Wunderground v.1.15,2013-02-27 15:05:00,
2013-02-27 08:10:00,28.6,7.3,30.46,North,355,2.0,2.0,40,0.00,,,0.00,Wunderground v.1.15,2013-02-27 15:10:00,
2013-02-27 08:15:00,28.7,6.8,30.46,North,360,2.0,3.0,39,0.00,,,0.00,Wunderground v.1.15,2013-02-27 15:15:00,
2013-02-27 08:20:00,28.9,7.0,30.47,North,360,2.0,2.0,39,0.00,,,0.00,Wunderground v.1.15,2013-02-27 15:20:00,
2013-02-27 08:25:00,29.3,6.8,30.47,North,360,1.0,2.0,38,0.00,,,0.00,Wunderground v.1.15,2013-02-27 15:25:00,
2013-02-27 08:35:00,29.7,7.2,30.47,North,360,1.0,2.0,38,0.00,,,0.00,Wunderground v.1.15,2013-02-27 15:35:00,
2013-02-27 08:40:00,30.1,6.9,30.47,North,360,1.0,1.0,37,0.00,,,0.00,Wunderground v.1.15,2013-02-27 15:40:00,
2013-02-27 08:45:00,30.3,7.1,30.48,North,360,1.0,2.0,37,0.00,,,0.00,Wunderground v.1.15,2013-02-27 15:45:00,
2013-02-27 08:50:00,30.6,7.4,30.48,North,360,1.0,1.0,37,0.00,,,0.00,Wunderground v.1.15,2013-02-27 15:50:00,
2013-02-27 08:55:00,30.9,7.0,30.47,North,360,1.0,1.0,36,0.00,,,0.00,Wunderground v.1.15,2013-02-27 15:55:00,
2013-02-27 09:00:00,31.2,7.3,30.47,North,360,1.0,1.0,36,0.00,,,0.00,Wunderground v.1.15,2013-02-27 16:00:00,
2013-02-27 09:05:00,31.4,7.5,30.47,North,360,1.0,2.0,36,0.00,,,0.00,Wunderground v.1.15,2013-02-27 16:05:00,
2013-02-27 09:10:00,31.6,7.0,30.48,North,355,1.0,1.0,35,0.00,,,0.00,Wunderground v.1.15,2013-02-27 16:10:00,
2013-02-27 09:15:00,31.9,7.3,30.48,North,355,1.0,2.0,35,0.00,,,0.00,Wunderground v.1.15,2013-02-27 16:15:00,
2013-02-27 09:20:00,32.0,7.4,30.48,North,355,1.0,1.0,35,0.00,,,0.00,Wunderground v.1.15,2013-02-27 16:20:00,
2013-02-27 09:30:00,32.7,8.0,30.48,North,355,1.0,4.0,35,0.00,,,0.00,Wunderground v.1.15,2013-02-27 16:30:00,
2013-02-27 09:35:00,33.2,8.5,30.48,NNW,343,1.0,4.0,35,0.00,,,0.00,Wunderground v.1.15,2013-02-27 16:35:00,
2013-02-27 09:45:00,33.2,7.8,30.48,NNW,332,1.0,6.0,34,0.00,,,0.00,Wunderground v.1.15,2013-02-27 16:45:00,
2013-02-27 09:50:00,33.4,7.3,30.48,North,360,2.0,2.0,33,0.00,,,0.00,Wunderground v.1.15,2013-02-27 16:50:00,
2013-02-27 09:55:00,33.7,7.6,30.48,North,9,2.0,2.0,33,0.00,,,0.00,Wunderground v.1.15,2013-02-27 16:55:00,
2013-02-27 10:00:00,34.4,8.2,30.48,North,5,1.0,1.0,33,0.00,,,0.00,Wunderground v.1.15,2013-02-27 17:00:00,
2013-02-27 10:10:00,34.5,8.3,30.48,NW,320,2.0,4.0,33,0.00,,,0.00,Wunderground v.1.15,2013-02-27 17:10:00,
2013-02-27 10:15:00,34.7,7.8,30.47,NW,323,3.0,4.0,32,0.00,,,0.00,Wunderground v.1.15,2013-02-27 17:15:00,
2013-02-27 10:20:00,34.7,7.8,30.47,NNW,340,3.0,4.0,32,0.00,,,0.00,Wunderground v.1.15,2013-02-27 17:20:00,
2013-02-27 10:24:00,35.1,8.2,30.48,NNW,338,2.0,4.0,32,0.00,,,0.00,Wunderground v.1.15,2013-02-27 17:24:00,
2013-02-27 10:30:00,35.7,8.0,30.47,NNW,338,1.0,1.0,31,0.00,,,0.00,Wunderground v.1.15,2013-02-27 17:30:00,
2013-02-27 10:35:00,35.8,8.1,30.47,NNW,348,1.0,1.0,31,0.00,,,0.00,Wunderground v.1.15,2013-02-27 17:35:00,
2013-02-27 10:40:00,36.4,8.6,30.47,NNW,346,1.0,1.0,31,0.00,,,0.00,Wunderground v.1.15,2013-02-27 17:40:00,
2013-02-27 10:45:00,37.2,8.6,30.47,NNW,348,1.0,1.0,30,0.00,,,0.00,Wunderground v.1.15,2013-02-27 17:45:00,
2013-02-27 10:50:00,37.8,9.1,30.47,NNW,336,1.0,1.0,30,0.00,,,0.00,Wunderground v.1.15,2013-02-27 17:50:00,
2013-02-27 10:55:00,37.9,8.4,30.47,NNW,333,1.0,1.0,29,0.00,,,0.00,Wunderground v.1.15,2013-02-27 17:55:00,
2013-02-27 11:00:00,37.6,8.2,30.46,NNW,333,1.0,1.0,29,0.00,,,0.00,Wunderground v.1.15,2013-02-27 18:00:00,
2013-02-27 11:05:00,38.0,10.0,30.46,NNW,330,1.0,4.0,31,0.00,,,0.00,Wunderground v.1.15,2013-02-27 18:05:00,
2013-02-27 11:10:00,37.9,8.4,30.46,NNW,327,2.0,2.0,29,0.00,,,0.00,Wunderground v.1.15,2013-02-27 18:10:00,
2013-02-27 11:15:00,37.8,8.3,30.47,NNW,329,3.0,3.0,29,0.00,,,0.00,Wunderground v.1.15,2013-02-27 18:15:00,
2013-02-27 11:25:00,39.2,8.8,30.47,NNE,12,2.0,2.0,28,0.00,,,0.00,Wunderground v.1.15,2013-02-27 18:25:00,
2013-02-27 11:30:00,39.4,8.9,30.46,NNE,13,1.0,1.0,28,0.00,,,0.00,Wunderground v.1.15,2013-02-27 18:30:00,
2013-02-27 11:35:00,40.1,9.6,30.47,WSW,250,1.0,4.0,28,0.00,,,0.00,Wunderground v.1.15,2013-02-27 18:35:00,
2013-02-27 11:40:00,40.5,9.9,30.47,WNW,286,2.0,2.0,28,0.00,,,0.00,Wunderground v.1.15,2013-02-27 18:40:00,
2013-02-27 11:45:00,41.1,10.4,30.47,WNW,287,2.0,4.0,28,0.00,,,0.00,Wunderground v.1.15,2013-02-27 18:45:00,
2013-02-27 11:50:00,40.8,9.3,30.46,SW,225,2.0,5.0,27,0.00,,,0.00,Wunderground v.1.15,2013-02-27 18:50:00,
2013-02-27 12:00:00,41.0,8.7,30.46,SW,219,2.0,2.0,26,0.00,,,0.00,Wunderground v.1.15,2013-02-27 19:00:00,
2013-02-27 12:05:00,41.2,8.8,30.46,SSW,205,2.0,2.0,26,0.00,,,0.00,Wunderground v.1.15,2013-02-27 19:05:00,
2013-02-27 12:10:00,41.0,8.7,30.46,SSW,204,1.0,6.0,26,0.00,,,0.00,Wunderground v.1.15,2013-02-27 19:10:00,
2013-02-27 12:15:00,41.4,9.9,30.45,SSW,200,1.0,6.0,27,0.00,,,0.00,Wunderground v.1.15,2013-02-27 19:15:00,
2013-02-27 12:20:00,41.8,9.4,30.45,WSW,238,2.0,2.0,26,0.00,,,0.00,Wunderground v.1.15,2013-02-27 19:20:00,
2013-02-27 12:25:00,42.1,9.6,30.45,WSW,248,2.0,2.0,26,0.00,,,0.00,Wunderground v.1.15,2013-02-27 19:25:00,
2013-02-27 12:30:00,42.3,8.9,30.44,SW,236,1.0,2.0,25,0.00,,,0.00,Wunderground v.1.15,2013-02-27 19:30:00,
2013-02-27 12:35:00,42.3,8.9,30.44,SSW,206,1.0,2.0,25,0.00,,,0.00,Wunderground v.1.15,2013-02-27 19:35:00,
2013-02-27 12:40:00,42.5,8.2,30.43,SSW,196,2.0,2.0,24,0.00,,,0.00,Wunderground v.1.15,2013-02-27 19:40:00,
2013-02-27 12:45:00,42.5,8.2,30.43,SSW,193,2.0,2.0,24,0.00,,,0.00,Wunderground v.1.15,2013-02-27 19:45:00,
2013-02-27 12:49:00,43.0,8.6,30.43,SSE,162,1.0,3.0,24,0.00,,,0.00,Wunderground v.1.15,2013-02-27 19:49:00,
2013-02-27 12:55:00,42.7,8.4,30.43,ESE,118,1.0,3.0,24,0.00,,,0.00,Wunderground v.1.15,2013-02-27 19:55:00,
2013-02-27 13:00:00,43.2,7.8,30.43,SE,128,1.0,5.0,23,0.00,,,0.00,Wunderground v.1.15,2013-02-27 20:00:00,
2013-02-27 13:05:00,43.2,8.8,30.42,SE,138,1.0,5.0,24,0.00,,,0.00,Wunderground v.1.15,2013-02-27 20:05:00,
2013-02-27 13:10:00,43.5,8.1,30.42,SE,138,2.0,2.0,23,0.00,,,0.00,Wunderground v.1.15,2013-02-27 20:10:00,
2013-02-27 13:15:00,43.2,7.8,30.42,ESE,118,1.0,2.0,23,0.00,,,0.00,Wunderground v.1.15,2013-02-27 20:15:00,
2013-02-27 13:20:00,43.2,7.8,30.42,SE,142,1.0,4.0,23,0.00,,,0.00,Wunderground v.1.15,2013-02-27 20:20:00,
2013-02-27 13:25:00,44.0,8.5,30.42,SSE,155,1.0,4.0,23,0.00,,,0.00,Wunderground v.1.15,2013-02-27 20:25:00,
2013-02-27 13:30:00,44.6,8.0,30.42,SSW,205,2.0,5.0,22,0.00,,,0.00,Wunderground v.1.15,2013-02-27 20:30:00,
2013-02-27 13:34:00,44.6,7.0,30.42,SE,145,3.0,5.0,21,0.00,,,0.00,Wunderground v.1.15,2013-02-27 20:34:00,
2013-02-27 13:40:00,44.7,7.1,30.41,SSW,202,3.0,3.0,21,0.00,,,0.00,Wunderground v.1.15,2013-02-27 20:40:00,
2013-02-27 13:45:00,44.8,7.2,30.41,WNW,298,2.0,3.0,21,0.00,,,0.00,Wunderground v.1.15,2013-02-27 20:45:00,
2013-02-27 13:50:00,45.1,7.4,30.41,SW,225,1.0,6.0,21,0.00,,,0.00,Wunderground v.1.15,2013-02-27 20:50:00,
2013-02-27 13:55:00,45.4,7.7,30.41,SW,224,1.0,6.0,21,0.00,,,0.00,Wunderground v.1.15,2013-02-27 20:55:00,
2013-02-27 14:00:00,45.9,7.0,30.41,SW,221,2.0,2.0,20,0.00,,,0.00,Wunderground v.1.15,2013-02-27 21:00:00,
2013-02-27 14:05:00,45.6,5.6,30.41,SW,226,1.0,2.0,19,0.00,,,0.00,Wunderground v.1.15,2013-02-27 21:05:00,
2013-02-27 14:10:00,44.9,5.1,30.40,WNW,302,2.0,3.0,19,0.00,,,0.00,Wunderground v.1.15,2013-02-27 21:10:00,
2013-02-27 14:15:00,44.4,5.8,30.40,WNW,298,3.0,3.0,20,0.00,,,0.00,Wunderground v.1.15,2013-02-27 21:15:00,
2013-02-27 14:20:00,45.4,6.6,30.40,WSW,249,2.0,2.0,20,0.00,,,0.00,Wunderground v.1.15,2013-02-27 21:20:00,
2013-02-27 14:25:00,46.1,6.0,30.40,SW,236,1.0,2.0,19,0.00,,,0.00,Wunderground v.1.15,2013-02-27 21:25:00,
2013-02-27 14:30:00,46.4,6.3,30.40,SW,214,1.0,1.0,19,0.00,,,0.00,Wunderground v.1.15,2013-02-27 21:30:00,
2013-02-27 14:35:00,46.3,6.2,30.40,SSW,194,1.0,4.0,19,0.00,,,0.00,Wunderground v.1.15,2013-02-27 21:35:00,
2013-02-27 14:40:00,46.3,6.2,30.40,SSW,211,1.0,4.0,19,0.00,,,0.00,Wunderground v.1.15,2013-02-27 21:40:00,
2013-02-27 14:45:00,46.5,6.4,30.40,SW,228,2.0,4.0,19,0.00,,,0.00,Wunderground v.1.15,2013-02-27 21:45:00,
2013-02-27 14:50:00,46.8,4.2,30.40,South,184,2.0,2.0,17,0.00,,,0.00,Wunderground v.1.15,2013-02-27 21:50:00,
2013-02-27 14:55:00,46.4,3.9,30.40,SSW,211,2.0,4.0,17,0.00,,,0.00,Wunderground v.1.15,2013-02-27 21:55:00,
2013-02-27 15:00:00,46.3,3.8,30.40,SW,220,2.0,5.0,17,0.00,,,0.00,Wunderground v.1.15,2013-02-27 22:00:00,
2013-02-27 15:05:00,46.3,2.5,30.40,SSW,203,2.0,5.0,16,0.00,,,0.00,Wunderground v.1.15,2013-02-27 22:05:00,
2013-02-27 15:10:00,46.0,3.5,30.39,SSW,195,1.0,3.0,17,0.00,,,0.00,Wunderground v.1.15,2013-02-27 22:10:00,
2013-02-27 15:15:00,46.0,4.8,30.40,SSW,210,2.0,3.0,18,0.00,,,0.00,Wunderground v.1.15,2013-02-27 22:15:00,
2013-02-27 15:20:00,46.2,3.7,30.40,SW,227,2.0,4.0,17,0.00,,,0.00,Wunderground v.1.15,2013-02-27 22:20:00,
2013-02-27 15:25:00,46.2,3.7,30.39,SW,227,2.0,4.0,17,0.00,,,0.00,Wunderground v.1.15,2013-02-27 22:25:00,
2013-02-27 15:30:00,46.1,3.6,30.39,SSW,204,2.0,4.0,17,0.00,,,0.00,Wunderground v.1.15,2013-02-27 22:30:00,
2013-02-27 15:35:00,46.1,3.6,30.39,SSW,195,1.0,4.0,17,0.00,,,0.00,Wunderground v.1.15,2013-02-27 22:35:00,
2013-02-27 15:40:00,45.7,3.3,30.39,SSW,195,1.0,1.0,17,0.00,,,0.00,Wunderground v.1.15,2013-02-27 22:40:00,
2013-02-27 15:45:00,45.4,3.0,30.38,SSW,195,0.0,1.0,17,0.00,,,0.00,Wunderground v.1.15,2013-02-27 22:45:00,
2013-02-27 15:50:00,45.3,3.0,30.38,SSW,195,1.0,1.0,17,0.00,,,0.00,Wunderground v.1.15,2013-02-27 22:50:00,
2013-02-27 15:55:00,45.8,3.4,30.38,SSW,195,1.0,1.0,17,0.00,,,0.00,Wunderground v.1.15,2013-02-27 22:55:00,
2013-02-27 16:00:00,46.3,3.8,30.38,SSW,195,1.0,3.0,17,0.00,,,0.00,Wunderground v.1.15,2013-02-27 23:00:00,
2013-02-27 16:10:00,46.7,2.8,30.38,SSW,202,1.0,4.0,16,0.00,,,0.00,Wunderground v.1.15,2013-02-27 23:10:00,
2013-02-27 16:15:00,46.5,2.6,30.38,SSW,202,2.0,4.0,16,0.00,,,0.00,Wunderground v.1.15,2013-02-27 23:15:00,
2013-02-27 16:20:00,45.9,2.1,30.38,SSW,202,1.0,1.0,16,0.00,,,0.00,Wunderground v.1.15,2013-02-27 23:20:00,
2013-02-27 16:25:00,45.8,3.4,30.38,SSW,211,1.0,1.0,17,0.00,,,0.00,Wunderground v.1.15,2013-02-27 23:25:00,
2013-02-27 16:30:00,45.8,3.4,30.38,SW,217,1.0,1.0,17,0.00,,,0.00,Wunderground v.1.15,2013-02-27 23:30:00,
2013-02-27 16:35:00,46.1,2.3,30.38,SW,219,1.0,1.0,16,0.00,,,0.00,Wunderground v.1.15,2013-02-27 23:35:00,
2013-02-27 16:40:00,46.1,2.3,30.38,SW,219,1.0,1.0,16,0.00,,,0.00,Wunderground v.1.15,2013-02-27 23:40:00,
2013-02-27 16:45:00,46.1,2.3,30.38,SW,219,1.0,1.0,16,0.00,,,0.00,Wunderground v.1.15,2013-02-27 23:45:00,
2013-02-27 16:50:00,45.5,1.8,30.38,SW,219,1.0,1.0,16,0.00,,,0.00,Wunderground v.1.15,2013-02-27 23:50:00,
2013-02-27 16:55:00,45.4,3.0,30.38,SW,220,1.0,1.0,17,0.00,,,0.00,Wunderground v.1.15,2013-02-27 23:55:00,
2013-02-27 17:00:00,45.2,2.9,30.38,SW,220,1.0,1.0,17,0.00,,,0.00,Wunderground v.1.15,2013-02-28 00:00:00,
2013-02-27 17:10:00,44.5,2.3,30.38,SW,219,1.0,1.0,17,0.00,,,0.00,Wunderground v.1.15,2013-02-28 00:10:00,
2013-02-27 17:15:00,44.1,2.0,30.38,SW,219,1.0,1.0,17,0.00,,,0.00,Wunderground v.1.15,2013-02-28 00:15:00,
2013-02-27 17:20:00,43.8,1.7,30.38,SW,219,0.0,0.0,17,0.00,,,0.00,Wunderground v.1.15,2013-02-28 00:20:00,
2013-02-27 17:25:00,43.5,2.7,30.38,SW,219,0.0,0.0,18,0.00,,,0.00,Wunderground v.1.15,2013-02-28 00:25:00,
2013-02-27 17:30:00,43.3,2.6,30.38,SW,218,1.0,1.0,18,0.00,,,0.00,Wunderground v.1.15,2013-02-28 00:30:00,
2013-02-27 17:35:00,43.1,2.4,30.38,SW,219,1.0,1.0,18,0.00,,,0.00,Wunderground v.1.15,2013-02-28 00:35:00,
2013-02-27 17:40:00,42.8,2.1,30.38,SW,217,0.0,1.0,18,0.00,,,0.00,Wunderground v.1.15,2013-02-28 00:40:00,
2013-02-27 17:45:00,42.5,1.9,30.38,SW,217,1.0,1.0,18,0.00,,,0.00,Wunderground v.1.15,2013-02-28 00:45:00,
2013-02-27 17:50:00,42.2,1.6,30.38,SW,217,1.0,1.0,18,0.00,,,0.00,Wunderground v.1.15,2013-02-28 00:50:00,
2013-02-27 17:55:00,42.0,1.5,30.38,SW,217,0.0,1.0,18,0.00,,,0.00,Wunderground v.1.15,2013-02-28 00:55:00,
2013-02-27 18:00:00,41.7,1.2,30.38,SW,217,0.0,0.0,18,0.00,,,0.00,Wunderground v.1.15,2013-02-28 01:00:00,
2013-02-27 18:05:00,41.5,2.2,30.38,SW,217,0.0,0.0,19,0.00,,,0.00,Wunderground v.1.15,2013-02-28 01:05:00,
2013-02-27 18:10:00,41.2,2.0,30.38,SW,217,0.0,0.0,19,0.00,,,0.00,Wunderground v.1.15,2013-02-28 01:10:00,
2013-02-27 18:15:00,41.0,1.8,30.38,SW,217,0.0,0.0,19,0.00,,,0.00,Wunderground v.1.15,2013-02-28 01:15:00,
2013-02-27 18:20:00,40.7,1.6,30.38,SW,217,0.0,0.0,19,0.00,,,0.00,Wunderground v.1.15,2013-02-28 01:20:00,
2013-02-27 18:25:00,40.5,1.4,30.38,SW,217,0.0,0.0,19,0.00,,,0.00,Wunderground v.1.15,2013-02-28 01:25:00,
2013-02-27 18:30:00,40.2,1.1,30.38,SW,217,0.0,1.0,19,0.00,,,0.00,Wunderground v.1.15,2013-02-28 01:30:00,
2013-02-27 18:35:00,40.0,2.1,30.38,SW,217,0.0,1.0,20,0.00,,,0.00,Wunderground v.1.15,2013-02-28 01:35:00,
2013-02-27 18:40:00,39.8,1.9,30.38,SW,217,0.0,1.0,20,0.00,,,0.00,Wunderground v.1.15,2013-02-28 01:40:00,
2013-02-27 18:44:00,39.7,1.8,30.39,SW,217,0.0,1.0,20,0.00,,,0.00,Wunderground v.1.15,2013-02-28 01:44:00,
2013-02-27 18:50:00,39.6,2.8,30.39,SW,216,0.0,0.0,21,0.00,,,0.00,Wunderground v.1.15,2013-02-28 01:50:00,
2013-02-27 18:55:00,39.4,2.6,30.39,SW,216,0.0,0.0,21,0.00,,,0.00,Wunderground v.1.15,2013-02-28 01:55:00,
2013-02-27 19:00:00,39.2,2.5,30.39,SW,216,0.0,0.0,21,0.00,,,0.00,Wunderground v.1.15,2013-02-28 02:00:00,
2013-02-27 19:05:00,39.0,2.3,30.39,SW,216,0.0,0.0,21,0.00,,,0.00,Wunderground v.1.15,2013-02-28 02:05:00,
2013-02-27 19:10:00,38.8,2.1,30.40,SW,216,0.0,0.0,21,0.00,,,0.00,Wunderground v.1.15,2013-02-28 02:10:00,
2013-02-27 19:15:00,38.6,2.0,30.40,SW,216,0.0,0.0,21,0.00,,,0.00,Wunderground v.1.15,2013-02-28 02:15:00,
2013-02-27 19:20:00,38.3,1.7,30.40,SW,216,0.0,0.0,21,0.00,,,0.00,Wunderground v.1.15,2013-02-28 02:20:00,
2013-02-27 19:25:00,37.9,2.4,30.40,SW,216,0.0,0.0,22,0.00,,,0.00,Wunderground v.1.15,2013-02-28 02:25:00,
2013-02-27 19:30:00,37.3,1.9,30.40,SW,216,0.0,0.0,22,0.00,,,0.00,Wunderground v.1.15,2013-02-28 02:30:00,
2013-02-27 19:35:00,36.7,2.3,30.41,SW,216,0.0,0.0,23,0.00,,,0.00,Wunderground v.1.15,2013-02-28 02:35:00,
2013-02-27 19:45:00,36.1,1.8,30.41,SW,216,0.0,0.0,23,0.00,,,0.00,Wunderground v.1.15,2013-02-28 02:45:00,
2013-02-27 19:50:00,35.8,2.5,30.41,SW,216,0.0,0.0,24,0.00,,,0.00,Wunderground v.1.15,2013-02-28 02:50:00,
2013-02-27 19:55:00,36.0,2.6,30.41,SW,216,0.0,0.0,24,0.00,,,0.00,Wunderground v.1.15,2013-02-28 02:55:00,
2013-02-27 20:00:00,36.0,3.5,30.42,SW,218,0.0,0.0,25,0.00,,,0.00,Wunderground v.1.15,2013-02-28 03:00:00,
2013-02-27 20:05:00,36.1,2.7,30.42,SW,218,1.0,1.0,24,0.00,,,0.00,Wunderground v.1.15,2013-02-28 03:05:00,
2013-02-27 20:15:00,35.8,2.5,30.42,SW,218,0.0,0.0,24,0.00,,,0.00,Wunderground v.1.15,2013-02-28 03:15:00,
2013-02-27 20:25:00,35.0,2.7,30.42,SW,218,0.0,0.0,25,0.00,,,0.00,Wunderground v.1.15,2013-02-28 03:25:00,
2013-02-27 20:30:00,34.4,3.0,30.42,SW,218,0.0,0.0,26,0.00,,,0.00,Wunderground v.1.15,2013-02-28 03:30:00,
2013-02-27 20:34:00,34.0,3.5,30.43,SW,218,0.0,0.0,27,0.00,,,0.00,Wunderground v.1.15,2013-02-28 03:34:00,
2013-02-27 20:40:00,33.6,3.1,30.43,SW,218,0.0,0.0,27,0.00,,,0.00,Wunderground v.1.15,2013-02-28 03:40:00,
2013-02-27 20:45:00,33.2,2.8,30.43,SW,218,0.0,0.0,27,0.00,,,0.00,Wunderground v.1.15,2013-02-28 03:45:00,
2013-02-27 20:50:00,32.7,3.1,30.43,SW,218,0.0,0.0,28,0.00,,,0.00,Wunderground v.1.15,2013-02-28 03:50:00,
2013-02-27 20:55:00,32.3,2.8,30.43,SW,218,0.0,0.0,28,0.00,,,0.00,Wunderground v.1.15,2013-02-28 03:55:00,
2013-02-27 21:05:00,31.4,2.8,30.44,SW,218,0.0,0.0,29,0.00,,,0.00,Wunderground v.1.15,2013-02-28 04:05:00,
2013-02-27 21:15:00,30.9,1.6,30.44,SW,218,0.0,0.0,28,0.00,,,0.00,Wunderground v.1.15,2013-02-28 04:15:00,
2013-02-27 21:20:00,30.6,1.3,30.45,SW,218,0.0,0.0,28,0.00,,,0.00,Wunderground v.1.15,2013-02-28 04:20:00,
2013-02-27 21:29:00,31.3,0.3,30.45,SW,218,0.0,0.0,26,0.00,,,0.00,Wunderground v.1.15,2013-02-28 04:29:00,
2013-02-27 21:35:00,32.0,0.9,30.45,SW,218,0.0,0.0,26,0.00,,,0.00,Wunderground v.1.15,2013-02-28 04:35:00,
2013-02-27 21:40:00,32.4,0.4,30.45,SW,218,0.0,0.0,25,0.00,,,0.00,Wunderground v.1.15,2013-02-28 04:40:00,
2013-02-27 21:45:00,32.4,1.3,30.45,SW,218,0.0,0.0,26,0.00,,,0.00,Wunderground v.1.15,2013-02-28 04:45:00,
2013-02-27 21:50:00,32.2,1.1,30.45,SW,218,0.0,0.0,26,0.00,,,0.00,Wunderground v.1.15,2013-02-28 04:50:00,
2013-02-27 21:55:00,31.7,0.7,30.45,SW,218,0.0,0.0,26,0.00,,,0.00,Wunderground v.1.15,2013-02-28 04:55:00,
2013-02-27 22:00:00,31.4,1.2,30.45,SW,218,0.0,0.0,27,0.00,,,0.00,Wunderground v.1.15,2013-02-28 05:00:00,
2013-02-27 22:05:00,30.9,0.8,30.45,SW,218,0.0,0.0,27,0.00,,,0.00,Wunderground v.1.15,2013-02-28 05:05:00,
2013-02-27 22:15:00,30.1,0.9,30.45,SW,218,0.0,0.0,28,0.00,,,0.00,Wunderground v.1.15,2013-02-28 05:15:00,
2013-02-27 22:20:00,29.7,1.3,30.45,SW,218,0.0,1.0,29,0.00,,,0.00,Wunderground v.1.15,2013-02-28 05:20:00,
2013-02-27 22:30:00,29.6,1.9,30.45,SW,218,0.0,0.0,30,0.00,,,0.00,Wunderground v.1.15,2013-02-28 05:30:00,
2013-02-27 22:34:00,29.6,1.9,30.46,SW,218,0.0,0.0,30,0.00,,,0.00,Wunderground v.1.15,2013-02-28 05:34:00,
2013-02-27 22:39:00,29.4,1.7,30.45,SW,218,0.0,0.0,30,0.00,,,0.00,Wunderground v.1.15,2013-02-28 05:39:00,
2013-02-27 22:45:00,29.3,1.6,30.45,SW,218,0.0,0.0,30,0.00,,,0.00,Wunderground v.1.15,2013-02-28 05:45:00,
2013-02-27 22:50:00,29.2,1.6,30.45,SW,218,0.0,0.0,30,0.00,,,0.00,Wunderground v.1.15,2013-02-28 05:50:00,
2013-02-27 22:55:00,29.1,0.7,30.45,SW,218,0.0,0.0,29,0.00,,,0.00,Wunderground v.1.15,2013-02-28 05:55:00,
2013-02-27 23:00:00,29.4,1.0,30.45,SW,218,0.0,2.0,29,0.00,,,0.00,Wunderground v.1.15,2013-02-28 06:00:00,
2013-02-27 23:10:00,30.4,1.1,30.46,SW,218,0.0,0.0,28,0.00,,,0.00,Wunderground v.1.15,2013-02-28 06:10:00,
2013-02-27 23:15:00,30.6,1.3,30.46,SW,218,0.0,0.0,28,0.00,,,0.00,Wunderground v.1.15,2013-02-28 06:15:00,
2013-02-27 23:20:00,30.4,1.1,30.46,SW,218,0.0,0.0,28,0.00,,,0.00,Wunderground v.1.15,2013-02-28 06:20:00,
2013-02-27 23:30:00,29.7,1.3,30.46,SW,218,0.0,2.0,29,0.00,,,0.00,Wunderground v.1.15,2013-02-28 06:30:00,
2013-02-27 23:35:00,29.5,1.1,30.46,SW,218,0.0,2.0,29,0.00,,,0.00,Wunderground v.1.15,2013-02-28 06:35:00,
2013-02-27 23:40:00,29.4,1.0,30.46,SW,218,0.0,0.0,29,0.00,,,0.00,Wunderground v.1.15,2013-02-28 06:40:00,
2013-02-27 23:45:00,29.3,0.9,30.46,SW,218,0.0,0.0,29,0.00,,,0.00,Wunderground v.1.15,2013-02-28 06:45:00,
2013-02-27 23:50:00,29.1,0.7,30.46,SW,218,0.0,0.0,29,0.00,,,0.00,Wunderground v.1.15,2013-02-28 06:50:00,
2013-02-27 23:55:00,28.8,0.5,30.46,SW,218,0.0,0.0,29,0.00,,,0.00,Wunderground v.1.15,2013-02-28 06:55:00,